Location: Sungai Bunut
(2.6333°N, 113.7333°E)
Time: 18:46:23
(UTC+00:00)

Transit 4A - Pass Details

Date: 12 December 2023
Orbit: 869 x 974 km, 66.8° (Epoch: 20 February)

Event Time Altitude Azimuth Distance (km) Brightness Sun altitude
Rises 21:22:30 0° 333° (NNW) 3,480 - -14.0°
Reaches altitude 10° 21:25:02 10° 330° (NNW) 2,531 - -13.4°
Exits shadow 21:25:14 11° 330° (NNW) 2,458 9.6 -13.4°
Maximum altitude 21:30:46 61° 251° (WSW) 986 7.8 -12.1°
Drops below altitude 10° 21:36:29 10° 171° (S) 2,511 10.6 -10.8°
Sets 21:38:59 0° 168° (SSE) 3,450 11.4 -10.2°
